Location: Piotrkow Trybunalski
(51.4000°N, 19.6830°E)
Time: 08:08:43
(UTC+01:00)

deb Explorer IX - All Passes

Search period start: 06 February 2023 00:00
Search period end: 16 February 2023 00:00
Orbit: 534 x 1048 km, 38.8° (Epoch: 05 February)

Date Brightness Start Highest point End Pass type
(mag) Time Alt. Az. Time Alt. Az. Time Alt. Az.
06 Feb - 02:52:56 10° S 02:54:28 12° SSE 02:55:58 10° SE visible
06 Feb - 04:37:07 10° SW 04:39:30 15° S 04:41:49 10° SSE visible
07 Feb - 02:20:13 10° S 02:21:49 12° SSE 02:23:21 10° SE night (unlit)
07 Feb - 04:04:20 10° SW 04:06:53 15° S 04:09:19 10° SE visible
07 Feb - 05:51:23 10° SSW 05:51:50 10° SSW 05:52:18 10° SSW visible
08 Feb - 01:47:29 10° S 01:49:07 12° SSE 01:50:43 10° SE night (unlit)
08 Feb - 03:31:29 10° SW 03:34:12 16° S 03:36:47 10° SE visible
08 Feb - 05:17:57 10° SW 05:19:10 11° SSW 05:20:23 10° S visible
09 Feb - 01:14:40 10° S 01:16:24 12° SSE 01:18:02 10° SE night (unlit)
09 Feb - 02:58:33 10° SW 03:01:29 16° S 03:04:13 10° SE visible
09 Feb - 04:44:46 10° SW 04:46:29 12° SSW 04:48:10 10° S visible
10 Feb - 00:41:50 10° S 00:43:36 12° SSE 00:45:18 10° SE night (unlit)
10 Feb - 02:25:35 10° SW 02:28:43 17° S 02:31:38 10° SE night (unlit)
10 Feb - 04:11:37 10° SW 04:13:45 13° SSW 04:15:48 10° SSE visible
11 Feb - 00:08:58 10° S 00:10:47 12° SSE 00:12:31 10° SE night (unlit)
11 Feb - 01:52:34 10° SW 01:55:54 18° S 01:58:59 10° SE night (unlit)
11 Feb - 03:38:27 10° SW 03:40:59 14° SSW 03:43:22 10° SSE visible
11 Feb - 23:36:04 10° S 23:37:54 12° SSE 23:39:41 10° SE night (unlit)
12 Feb - 01:19:30 10° SW 01:23:03 18° S 01:26:19 10° SE night (unlit)
12 Feb - 03:05:16 10° SW 03:08:09 16° SSW 03:10:52 10° SSE night (unlit)
12 Feb - 23:03:11 10° S 23:05:00 11° SSE 23:06:45 10° SE night (unlit)
13 Feb - 00:46:23 10° SW 00:50:09 19° S 00:53:35 10° SE night (unlit)
13 Feb - 02:32:03 10° SW 02:35:18 17° SSW 02:38:17 10° SSE night (unlit)
13 Feb - 22:30:17 10° S 22:32:02 11° SSE 22:33:42 10° SE night (unlit)
14 Feb - 00:13:14 10° SW 00:17:11 19° S 00:20:48 10° SE night (unlit)
14 Feb - 01:58:48 10° SW 02:02:23 18° S 02:05:39 10° SSE night (unlit)
14 Feb - 21:57:26 10° S 21:59:01 11° SSE 22:00:33 10° SE night (unlit)
14 Feb - 23:40:03 10° SW 23:44:11 20° S 23:47:58 10° SE night (unlit)
15 Feb - 01:25:31 10° SW 01:29:25 20° S 01:32:58 10° SE night (unlit)
15 Feb - 03:13:24 10° SW 03:14:19 10° SSW 03:15:14 10° SSW night (unlit)
15 Feb - 21:24:40 10° SSE 21:25:58 11° SSE 21:27:14 10° SE night (unlit)
15 Feb - 23:06:49 10° SW 23:11:07 20° S 23:15:04 10° SE night (unlit)
